Location: Gro�bocka
(50.8204°N, 11.9702°E)
Time: 03:54:01
(UTC+00:00)

X-37B - Pass Details

Date: 24 June 2021
Orbit: 383 x 392 km, 45.0° (Epoch: 01 July)

Event Time Altitude Azimuth Distance (km) Brightness Sun altitude
Rises 22:44:52 0° 258° (WSW) 2,256 4.4 -15.5°
Reaches altitude 10° 22:47:06 10° 246° (WSW) 1,402 3.2 -15.5°
Enters shadow 22:47:21 12° 243° (WSW) 1,315 3.1 -15.5°
